Location: Hiram
(41.3130°N, 81.1440°W)
Time: 22:31:33
(UTC-04:00)

Iridium 62 - Visible Passes

Search period start: 24 July 2016 00:00
Search period end: 03 August 2016 00:00
Orbit: 776 x 779 km, 86.4° (Epoch: 24 July)

Date Brightness Start Highest point End Pass type
(mag) Time Alt. Az. Time Alt. Az. Time Alt. Az.
24 Jul 6.6 05:01:25 10° SSE 05:06:28 53° E 05:11:31 10° NNE visible
25 Jul 7.7 04:28:42 10° SE 04:33:07 29° E 04:37:34 10° NNE visible
26 Jul 8.4 03:56:47 10° ESE 03:59:54 16° ENE 04:03:01 10° NE visible
26 Jul 6.0 05:34:57 10° SSW 05:40:03 58° W 05:45:13 10° N visible
27 Jul 6.0 05:01:20 10° S 05:06:31 77° E 05:11:45 10° N visible
28 Jul 7.0 04:28:16 10° SSE 04:33:07 41° E 04:38:00 10° NNE visible
29 Jul 7.9 03:55:47 10° SE 03:59:49 23° E 04:03:51 10° NNE visible
29 Jul 6.4 05:35:23 10° SSW 05:40:15 40° W 05:45:09 10° NNW visible
30 Jul 8.5 03:24:30 10° E 03:26:39 13° ENE 03:28:47 10° NE visible
30 Jul 5.8 05:01:26 10° S 05:06:38 74° W 05:11:52 10° N visible
31 Jul 6.3 04:28:12 11° SSE 04:33:09 60° E 04:38:17 10° N visible
01 Aug 7.3 03:55:13 10° SE 03:59:47 33° E 04:04:24 10° NNE visible
01 Aug 6.8 05:36:03 10° SW 05:40:29 28° W 05:44:57 10° NNW visible
02 Aug 8.2 03:23:03 10° ESE 03:26:32 18° E 03:30:01 10° NE visible
02 Aug 6.1 05:02:43 16° SSW 05:06:47 51° W 05:11:53 10° N visible
